This is the latest recevied weather packets stored in our database for station/object VK2OB. If no packets are shown the sender has not sent any weather packets the latest 10 day(s).
| Time | Temp. | Humidity | Pressure | Rain* | Wind** | Luminosity | Snow |
|---|---|---|---|---|---|---|---|
| 1777894778 | 18.33° C | 93% | 1016.8 hPa | 0.25 mm | - | - | - |
| 1777894479 | 18.33° C | 92% | 1016.7 hPa | 0.51 mm | - | - | - |
| 1777894180 | 18.33° C | 92% | 1016.4 hPa | 1.02 mm | - | - | - |
| 1777893881 | 18.33° C | 92% | 1016.5 hPa | 1.27 mm | - | - | - |
| 1777893582 | 18.33° C | 92% | 1016.4 hPa | 1.27 mm | - | - | - |
| 1777893283 | 18.33° C | 92% | 1016.4 hPa | 1.27 mm | - | - | - |
| 1777892984 | 18.33° C | 91% | 1016.4 hPa | 1.27 mm | - | - | - |
| 1777892685 | 18.33° C | 91% | 1016.6 hPa | 1.27 mm | - | - | - |
| 1777892385 | 18.33° C | 91% | 1016.7 hPa | 1.27 mm | - | - | - |
| 1777892087 | 18.33° C | 89% | 1016.6 hPa | 1.27 mm | - | - | - |
| 1777891788 | 18.33° C | 88% | 1016.7 hPa | 1.02 mm | - | - | - |
| 1777891488 | 18.33° C | 88% | 1016.7 hPa | 1.02 mm | - | - | - |
| 1777891189 | 18.33° C | 88% | 1016.7 hPa | 1.02 mm | - | - | - |
| 1777890890 | 18.33° C | 86% | 1016.8 hPa | 0.51 mm | - | - | - |
| 1777890590 | 18.33° C | 84% | 1016.6 hPa | 0.25 mm | - | - | - |
| 1777890290 | 19.44° C | 82% | 1016.5 hPa | 0 mm | - | - | - |
| 1777889990 | 19.44° C | 81% | 1016.5 hPa | 0 mm | - | - | - |
| 1777889691 | 19.44° C | 80% | 1016.5 hPa | 0 mm | - | - | - |
| 1777889392 | 19.44° C | 77% | 1016.7 hPa | 0 mm | - | - | - |
| 1777889093 | 20° C | 76% | 1016.8 hPa | 0 mm | - | - | - |
| 1777888794 | 20° C | 75% | 1016.9 hPa | 0 mm | - | - | - |
| 1777888495 | 20° C | 73% | 1016.8 hPa | 0 mm | - | - | - |
| 1777888196 | 20° C | 73% | 1016.7 hPa | 0 mm | - | - | - |
| 1777887897 | 20° C | 74% | 1016.7 hPa | 0 mm | - | - | - |
| 1777887598 | 20° C | 74% | 1016.5 hPa | 0 mm | - | - | - |
* Rain latest hour (hover to see other rain measurements)
** Current wind speed in m/s (hover to see current wind gust speed)